Showing default

COSMO-SKYMED-FM3, 67304

Orbit data source: Space-Track

COSMO-SKYMED-FM3, 67304 is an Italian payload satellite in SSO that was launched on Sat, 03 Jan 2026 UTC via an FALCON 9 launch vehicle from the Air Force Western Test Range (AFWTR). Payload-class satellites include a variety of spacecraft equipped with specific instruments for various scientific and technological missions. These include communications satellites like Starlink; space stations such as the ISS; scientific satellites like the Hubble; Earth observation satellites from companies like Planet Labs, Umbra, and HawkEye 360; GPS; miniature CubeSats for education and research; and military/defense satellites.

Loading next visibility...
Identifier
67304, 2026-001A
Orbit
SSO
Country
Flag of ITIT
Related business
Manufacturer
Thales Alenia
Mission
Operational Defense Radar Imaging
Bus & Motor
PRIMA, AOCS
Mass
2,205 kg wet, ~1,800 kg dry
Launch date (UTC)
2026-01-03 (2 months ago)
Launch vehicle
FALCON 9
Launch site
Air Force Western Test Range (AFWTR)
Object type
Payload
Rocket body
Debris
Shape & HBR
Box + 3 Pan, 10.5 m
Radar Cross Section
14.025 m²

Expand to show TLE details & history
Last TLE update: 3 hours ago

TLE from 3 hours ago
0 COSMO-SKYMED-FM3
1 67304U 26001A   26071.86150222  .00000543  00000-0  74711-4 0  9997
2 67304  97.8869 256.8532 0001428  86.9126 273.2250 14.82153052 10190
Epoch: 2026-03-12T20:40Z
TLE epoch observation values (Epoch: 2026-03-12T20:40:33.791Z)
Latitude
-0.0001°
Longitude
136.20711°
Altitude
625.505 km
Speed
7.546 km/s
True Right ascension
17h 07m 24s
True Declination
0° 00' 00"
Sunlit
Object was in daylight at epoch
Visualization orbit readout
Latitude
Unknown
Longitude
Unknown
Altitude
Unknown
Speed
Unknown
Apparent Right ascension
Unknown
Apparent Declination
Unknown
Sunlit
N/A
Visualization observer readout
Local Sidereal Time
04:19:36
Azimuth
Unknown
Elevation
Unknown
Doppler factor
Unknown
Orbital elements
Apogee altitude
620.573 km
Perigee altitude
618.574 km
Semi-major axis
6,997.711 km
Eccentricity
0.00014
Inclination
97.8869°
RAAN
256.8532°
Arg. of periapsis
86.9126°
True anomaly
273.20866°
Mean anomaly
273.225°
Eccentric anomaly
273.21683°
Mean motion
3.70774 °/min
Orbital period
97.09 mins
BSTAR
0.000074711
Loading maneuver chart data...
Computing Atmospheric mass density...
Loading historical data...
Loading historical data...
Loading historical data...
Loading historical data...
Loading historical data...
Loading historical data...
Loading historical data...
Other satellites on launch #1 in the year 2026 (2026-01-03 UTC)

Documentation

Showing up to 5 results
|